Погода в Килиндони

Танзания     7°55′01″S   39°40′01″E
темп.,
°C
ветер,
м/с
пор.,
м/с
влажн.,
%
обл.,
%
осадки,
мм/ч
давл.,
гПа
погр.,
м
15 мая, сб
сб1500:00+26ююв798165 0.5 1014717
03:00+27ююв897771 1.0 1013971
06:00+27ююв797699 0.2 1014925
09:00+26ююв788015 0.9 1016821
12:00+27ю788028 1.4 1016841
15:00+27ю7878100 2.1 1013758
18:00+27ююв697587 0.0 1013623
21:00+27юв68785 0.0 1014608
16 мая, вс
вс1600:00+27ююв688022 0.1 1014614
03:00+26ююв688139 0.7 1012604
06:00+26ю798030 0.3 1013823
09:00+27ю788023 0.4 1015838
12:00+27ю778294 1.3 1014765
15:00+26ююв6784100 4.6 1012524
18:00+25ю6785100 0.9 1013345
21:00+26юв4572100 0.9 1014304
17 мая, пн
пн1700:00+27вюв4573100 0.0 1013391
03:00+27юв4673100 0.0 1012493
06:00+27ююв4576100 0.4 1013567
09:00+27ююв467962 0.8 1015505
12:00+27ю677856 1.9 1014647
15:00+27ю677664 2.9 1012623
18:00+27ююв6877100 0.1 1013663
21:00+27ююв6979100 0.6 1014559
18 мая, вт
вт1800:00+27ююв687736 1.1 1014600
03:00+27ююв687820 2.1 1012703
06:00+27ююв687917 0.1 1013814
09:00+27ююв687948 0.8 1015753
12:00+27ююв787838 1.6 1015777
15:00+27ююв7107799 3.9 10131001
18:00+27ююв6108035 0.3 1014694
21:00+27ююв7107996 0.5 1015877
19 мая, ср
ср1900:00+27ююв7107999 0.3 1014833
03:00+27ююв8117849 1.0 1013782
06:00+26ююв91180100 1.8 1014779
09:00+27ююв8108016 3.3 10161084
12:00+27ю8107529 0.2 10151065
15:00+27ююв787795 0.2 1014934
18:00+27ююв710767 0.0 1014754
21:00+27ююв8107724 0.0 1015645